EXPRESS-AM7             
1 40505U 15012A   19260.91963517  .00000146  00000-0  00000-0 0  9993
2 40505   0.0037 193.3268 0002507 350.9900 183.3018  1.00272012 16655
BREEZE-M R/B            
1 40506U 15012B   19260.29816015 -.00000076  00000-0  00000-0 0  9998
2 40506  19.9850 239.5184 5811551 143.2113 276.0892  2.11096113 34704
BREEZE-M DEB [TANK]     
1 40507U 15012C   19257.92517176  .00000270  00000-0  85530-4 0  9991
2 40507  49.4943 103.5759 5480058 241.4128  53.4217  4.81337182 78737